Date String (YYYY-MM-DD hh:mm:ss) UTC,Instrument flags,absolute air pressure of the measurement (hPa),sample flow rate (lpm),inlet stack bypass flow (lpm),air temperature of the measurement (°C),ambient temperature measured by the external sensor (°C),aerosol sample conditioner tube jacket temperature (°C),OPC LED temperature (°C),internal box temperature (°C),relative humidity of the measurement (%),span deviation,mass concentration of particles derived from Lorenz-Mie calculation of OPC scattering (μg/m³),mass concentration of particles derived from Lorenz-Mie calculation of OPC scattering (μg/m³),mass concentration of particles derived from Lorenz-Mie calculation of OPC scattering (μg/m³)
DateTimeUTC,F1_M11,P_M11,Q1_M11,Q2_M11,T1_M11,T2_M11,T3_M11,T4_M11,T5_M11,U1_M11,ZSPAN_M11,X0_M11,X2_M11,X1_M11
2023-06-21 12:00:00,SystemResetWarning,0831.0,5.00,000.00,030.3,028.6,000.0,038.9,031.7,16.4,0000.0,0010.59,0004.34,0003.41
2023-06-21 12:01:00,SystemResetWarning,0831.0,5.00,000.00,030.3,028.6,000.0,038.9,031.7,16.0,0000.0,0010.65,0004.35,0003.42
2023-06-21 12:02:00,SystemResetWarning,0831.0,5.00,000.00,030.3,028.6,000.0,038.9,031.8,15.1,0000.0,0010.15,0004.32,0003.43
2023-06-21 12:03:00,SystemResetWarning,0831.1,4.99,000.00,030.3,028.6,000.0,038.9,031.8,15.2,0000.0,0009.97,0004.28,0003.43
2023-06-21 12:04:00,SystemResetWarning,0831.1,5.00,000.00,030.3,028.6,000.0,038.9,031.7,16.4,0000.0,0009.81,0004.25,0003.42
2023-06-21 12:05:00,SystemResetWarning,0831.1,4.99,000.00,030.3,028.6,000.0,038.9,031.8,15.9,0000.0,0009.70,0004.28,0003.41
2023-06-21 12:06:00,SystemResetWarning,0831.1,5.00,000.00,030.3,028.6,000.0,038.9,031.7,15.6,0000.0,0009.62,0004.30,0003.42
2023-06-21 12:07:00,SystemResetWarning,0831.1,5.01,000.00,030.3,028.6,000.0,038.9,031.7,15.7,0000.0,0009.62,0004.33,0003.42
2023-06-21 12:08:00,SystemResetWarning,0831.1,5.01,000.00,030.3,028.6,000.0,038.9,031.7,15.7,0000.0,0010.24,0004.33,0003.40
2023-06-21 12:09:00,SystemResetWarning,0831.1,5.00,000.00,030.4,028.6,000.0,038.9,031.8,15.8,0000.0,0010.76,0004.36,0003.41
2023-06-21 12:10:00,SystemResetWarning,0831.1,5.00,000.00,030.3,028.6,000.0,038.9,031.7,15.4,0000.0,0011.08,0004.36,0003.40
2023-06-21 12:11:00,SystemResetWarning,0831.1,5.00,000.00,030.4,028.6,000.0,038.9,031.8,15.8,0000.0,0010.84,0004.40,0003.40
2023-06-21 12:12:00,SystemResetWarning,0831.1,5.00,000.00,030.4,028.6,000.0,038.9,031.7,17.2,0000.0,0010.56,0004.37,0003.40
2023-06-21 12:13:00,SystemResetWarning,0831.1,4.99,000.00,030.4,028.6,000.0,038.9,031.7,16.8,0000.0,0010.93,0004.36,0003.40
2023-06-21 12:14:00,SystemResetWarning,0831.2,5.00,000.00,030.4,028.6,000.0,038.9,031.7,16.9,0000.0,0012.63,0004.41,0003.42
2023-06-21 12:15:00,SystemResetWarning,0831.1,5.00,000.00,030.4,028.6,000.0,038.9,031.7,16.7,0000.0,0013.22,0004.48,0003.46
2023-06-21 12:16:00,SystemResetWarning,0831.1,5.00,000.00,030.4,028.6,000.0,038.9,031.7,17.4,0000.0,0013.45,0004.48,0003.50
2023-06-21 12:17:00,SystemResetWarning,0831.1,5.00,000.00,030.4,028.6,000.0,038.9,031.7,17.0,0000.0,0013.48,0004.50,0003.53
2023-06-21 12:18:00,SystemResetWarning,0831.1,5.00,000.00,030.4,028.6,000.0,038.9,031.8,16.1,0000.0,0014.80,0004.53,0003.55
2023-06-21 12:19:00,SystemResetWarning,0831.1,5.00,000.00,030.4,028.6,000.0,038.9,031.7,16.8,0000.0,0014.79,0004.56,0003.58
2023-06-21 12:20:00,SystemResetWarning,0831.1,5.00,000.00,030.4,028.6,000.0,039.0,031.8,15.9,0000.0,0014.66,0004.57,0003.60
2023-06-21 12:21:00,SystemResetWarning,0831.2,5.01,000.00,030.4,028.6,000.0,039.0,031.7,15.5,0000.0,0015.11,0004.66,0003.62
2023-06-21 12:22:00,SystemResetWarning,0831.1,5.01,000.00,030.4,028.7,000.0,039.0,031.8,15.6,0000.0,0015.90,0004.72,0003.65
2023-06-21 12:23:00,SystemResetWarning,0831.2,5.01,000.00,030.4,028.7,000.0,039.0,031.8,15.3,0000.0,0016.82,0004.75,0003.66
2023-06-21 12:24:00,SystemResetWarning,0831.2,5.00,000.00,030.4,028.7,000.0,039.0,031.8,15.0,0000.0,0017.18,0004.73,0003.65
2023-06-21 12:25:00,SystemResetWarning,0831.2,4.99,000.00,030.4,028.7,000.0,039.0,031.7,14.9,0000.0,0016.56,0004.71,0003.64
2023-06-21 12:26:00,SystemResetWarning,0831.1,5.00,000.00,030.4,028.7,000.0,039.0,031.7,15.1,0000.0,0016.29,0004.66,0003.62
2023-06-21 12:27:00,SystemResetWarning,0831.1,5.01,000.00,030.4,028.7,000.0,039.0,031.8,14.9,0000.0,0015.84,0004.64,0003.59
2023-06-21 12:28:00,SystemResetWarning,0831.0,5.01,000.00,030.4,028.7,000.0,039.0,031.8,14.9,0000.0,0015.81,0004.61,0003.57
2023-06-21 12:29:00,SystemResetWarning,0831.0,5.00,000.00,030.4,028.7,000.0,039.0,031.8,15.2,0000.0,0015.14,0004.52,0003.55
2023-06-21 12:30:00,SystemResetWarning,0831.0,5.00,000.00,030.4,028.7,000.0,039.0,031.8,16.2,0000.0,0014.81,0004.44,0003.52
2023-06-21 12:31:00,SystemResetWarning,0830.9,5.00,000.00,030.4,028.7,000.0,039.0,031.8,15.4,0000.0,0015.42,0004.40,0003.51
2023-06-21 12:32:00,SystemResetWarning,0830.9,4.99,000.00,030.4,028.8,000.0,039.0,031.9,16.8,0000.0,0015.00,0004.37,0003.50
2023-06-21 12:33:00,SystemResetWarning,0831.0,4.99,000.00,030.5,028.8,000.0,039.0,031.8,15.6,0000.0,0014.42,0004.33,0003.49
2023-06-21 12:34:00,SystemResetWarning,0830.9,5.00,000.00,030.5,028.8,000.0,039.0,031.9,15.3,0000.0,0013.88,0004.29,0003.46
2023-06-21 12:35:00,SystemResetWarning,0830.9,5.00,000.00,030.5,028.8,000.0,039.0,031.9,16.3,0000.0,0012.84,0004.32,0003.46
2023-06-21 12:36:00,SystemResetWarning,0830.9,5.00,000.00,030.5,028.8,000.0,039.0,031.9,17.3,0000.0,0012.25,0004.31,0003.45
2023-06-21 12:37:00,SystemResetWarning,0830.9,5.01,000.00,030.5,028.8,000.0,039.0,031.9,16.0,0000.0,0011.93,0004.28,0003.44
2023-06-21 12:38:00,SystemResetWarning,0830.9,5.00,000.00,030.5,028.8,000.0,039.0,031.8,15.4,0000.0,0012.54,0004.28,0003.44
2023-06-21 12:39:00,SystemResetWarning,0830.9,5.00,000.00,030.5,028.8,000.0,039.1,031.9,15.7,0000.0,0012.53,0004.27,0003.44
2023-06-21 12:40:00,SystemResetWarning,0831.0,5.00,000.00,030.5,028.8,000.0,039.0,031.9,15.7,0000.0,0012.71,0004.26,0003.44
2023-06-21 12:41:00,SystemResetWarning,0831.0,5.00,000.00,030.5,028.8,000.0,039.1,031.9,15.7,0000.0,0012.44,0004.26,0003.43
2023-06-21 12:42:00,SystemResetWarning,0831.0,5.00,000.00,030.5,028.8,000.0,039.1,031.9,16.1,0000.0,0012.04,0004.27,0003.42
2023-06-21 12:43:00,SystemResetWarning,0831.0,5.00,000.00,030.5,028.8,000.0,039.1,031.9,15.2,0000.0,0011.89,0004.25,0003.41
2023-06-21 12:44:00,SystemResetWarning,0831.1,5.00,000.00,030.5,028.8,000.0,039.1,031.9,15.1,0000.0,0011.74,0004.23,0003.39
2023-06-21 12:45:00,SystemResetWarning,0831.1,4.99,000.00,030.5,028.8,000.0,039.1,031.9,16.0,0000.0,0011.42,0004.24,0003.38
2023-06-21 12:46:00,SystemResetWarning,0831.1,5.00,000.00,030.5,028.9,000.0,039.1,031.9,15.0,0000.0,0011.68,0004.22,0003.38
2023-06-21 12:47:00,SystemResetWarning,0831.2,5.00,000.00,030.5,028.9,000.0,039.1,031.9,16.4,0000.0,0011.35,0004.21,0003.38
2023-06-21 12:48:00,SystemResetWarning,0831.2,5.00,000.00,030.6,028.8,000.0,039.1,032.0,16.5,0000.0,0011.12,0004.20,0003.37
2023-06-21 12:49:00,SystemResetWarning,0831.1,4.99,000.00,030.6,027.2,000.0,039.1,032.0,15.3,0000.0,0010.67,0004.22,0003.36
2023-06-21 12:50:00,SystemResetWarning,0831.1,5.00,000.00,030.5,025.1,000.0,039.0,031.9,14.7,0000.0,0010.47,0004.20,0003.35
2023-06-21 12:51:00,SystemResetWarning,0831.1,5.02,000.00,030.5,025.1,000.0,038.9,031.8,15.2,0000.0,0011.20,0004.23,0003.35
2023-06-21 12:52:00,SystemResetWarning,0831.1,4.98,000.00,030.3,025.4,000.0,038.9,031.4,16.7,0000.0,0010.84,0004.22,0003.34
2023-06-21 12:53:00,SystemResetWarning,0831.1,4.99,000.00,030.2,025.9,000.0,038.9,031.3,16.5,0000.0,0010.06,0004.19,0003.33
2023-06-21 12:54:00,SystemResetWarning,0831.1,5.01,000.00,030.2,026.3,000.0,038.9,031.3,16.1,0000.0,0010.26,0004.16,0003.33
2023-06-21 12:55:00,SystemResetWarning,0831.1,5.01,000.00,030.2,026.7,000.0,038.8,031.4,17.7,0000.0,0010.82,0004.12,0003.32
2023-06-21 12:56:00,SystemResetWarning,0831.1,4.99,000.00,030.1,027.1,000.0,038.8,031.4,19.4,0000.0,0011.09,0004.05,0003.32
2023-06-21 12:57:00,SystemResetWarning,0831.1,4.99,000.00,030.1,027.4,000.0,038.8,031.4,19.5,0000.0,0010.73,0004.00,0003.31
2023-06-21 12:58:00,SystemResetWarning,0831.1,5.00,000.00,030.1,027.6,000.0,038.8,031.4,19.9,0000.0,0011.56,0004.01,0003.30
2023-06-21 12:59:00,SystemResetWarning,0831.1,5.01,000.00,030.1,027.8,000.0,038.8,031.4,19.1,0000.0,0011.64,0003.99,0003.29
